Regional Weather Roundup
Issued by NWS

Home | Current Version | Previous Version | Graphics & Text | Print | Product List | Glossary Off
Versions: 1 2 3 4 5 6 7 8 9 10 11 12 13 14 15 16 17 18 19 20 21 22 23 24 25 26 27 28 29 30 31 32 33 34 35 36 37 38 39 40 41 42 43 44 45 46 47 48 49 50

000
ASUS43 KTOP 192159
RWRKS

WEATHER ROUNDUP FOR KANSAS
NATIONAL WEATHER SERVICE GOODLAND KS
500 PM CDT SAT APR 19 2014

NOTE:  "FAIR" INDICATES FEW OR NO CLOUDS BELOW 12,000 FEET WITH NO
SIGNIFICANT WEATHER AND/OR OBSTRUCTIONS TO VISIBILITY.

KSZ001>006-013>018-027>032-041>047-192300-
NORTHWEST KANSAS

CITY           SKY/WX    TMP DP  RH WIND       PRES   REMARKS
GOODLAND       SUNNY     71  48  43 NE17      29.98S
HAYS           CLOUDY    79  50  36 S29G36    29.91R
HILL CITY      CLOUDY    83  47  28 S18G24    29.87F
RUSSELL        CLOUDY    80  48  32 S31G40    29.89F
$$

KSZ061>065-074>080-084>089-192300-
SOUTHWEST KANSAS

CITY           SKY/WX    TMP DP  RH WIND       PRES   REMARKS
DODGE CITY     CLOUDY    80  47  31 S21G30    29.94F
ELKHART          N/A     77  44  30 S18         N/A
GARDEN CITY    PTSUNNY   81  42  25 S22G31    29.92F
GREAT BEND     CLOUDY    79  52  38 S28G36    29.92S
LIBERAL        PTSUNNY   81  45  28 S25G35    29.96S
$$

KSZ066>073-081>083-090>101-192300-
SOUTHEAST KANSAS

CITY           SKY/WX    TMP DP  RH WIND       PRES   REMARKS
CHANUTE        SUNNY     76  44  32 S17G25    30.08F
COFFEYVILLE    SUNNY     77  45  32 S18       30.08F
HUTCHINSON     CLOUDY    81  49  32 S28G37    29.97F
NEWTON         PTSUNNY   79  46  31 S26       30.03F
PARSONS        SUNNY     78  43  28 S14G22    30.08F
WICHITA INTL   CLOUDY    78  48  34 S23G31    30.00S
WICHITA JABRA  PTSUNNY   78  49  35 S21G31    30.01S
WINFIELD       MOSUNNY   77  49  37 S18G30    30.04F
$$

KSZ007>012-019>026-033>040-048>060-102>105-192300-
NORTHEAST KANSAS

CITY           SKY/WX    TMP DP  RH WIND       PRES   REMARKS
CONCORDIA      MOSUNNY   79  50  36 S22G31    29.94F
EMPORIA        CLOUDY    76  42  29 S20G33    30.02F
LAWRENCE       MOSUNNY   78  45  30 S18G31    30.05F
MANHATTAN      PTSUNNY   79  46  31 S22G32    29.98
OLATHE IND     SUNNY     74  45  35 S14G29    30.08S
OLATHE EXE     SUNNY     73  45  36 S14       30.07F
SALINA         MOSUNNY   82  50  32 S21G33    29.95F
TOPEKA BILLARD MOSUNNY   78  43  28 S18G24    30.04S
TOPEKA FORBES  MOSUNNY   74  44  34 S18G29    30.04S
$$



USA.gov is the U.S. government's official web portal to all federal, state and local government web resources and services.